Location: Poprad
(49.0500°N, 20.3000°E)
Time: 17:16:10
(UTC+02:00)

CAS-6 - Pass Details

Date: 23 April 2024
Orbit: 607 x 628 km, 97.8° (Epoch: 26 May)

Event Time Altitude Azimuth Distance (km) Brightness Sun altitude
Exits shadow 23:27:55 33° 267° (W) 1,044 ? -26.2°
Drops below altitude 10° 23:31:45 10° 329° (NNW) 1,989 ? -26.4°
Sets 23:34:07 0° 339° (NNW) 2,896 ? -26.5°
